Location: Cella
(44.7333°N, 10.5667°E)
Time: 18:23:11
(UTC+00:00)

COSMOS 1867 COOLANT - Pass Details

Date: 26 September 2021
Orbit: 770 x 802 km, 65.0° (Epoch: 20 October)

Event Time Altitude Azimuth Distance (km) Brightness Sun altitude
Rises 20:47:30 0° 322° (NW) 3,320 ? -36.8°
Reaches altitude 10° 20:49:58 10° 319° (NW) 2,384 ? -37.1°
Enters shadow 20:52:34 28° 309° (NW) 1,464 ? -37.4°
